Location: N�rnberg
(49.4471°N, 11.0632°E)
Time: 03:35:15
(UTC+01:00)

ISS - Visible Passes

Search period start: 18 February 2026 00:00
Search period end: 28 February 2026 00:00
Orbit: 413 x 428 km, 51.6° (Epoch: 17 February)

Date Brightness Start Highest point End Pass type
(mag) Time Alt. Az. Time Alt. Az. Time Alt. Az.
18 Feb -2.1 04:54:28 31° ESE 04:54:28 31° ESE 04:56:51 10° E visible
18 Feb -3.8 06:27:27 12° W 06:30:28 73° NNW 06:33:48 10° ENE visible
19 Feb -0.3 04:09:16 11° E 04:09:16 11° E 04:09:32 10° E visible
19 Feb -3.9 05:42:16 41° WSW 05:43:19 89° NNW 05:46:40 10° ENE visible
20 Feb -2.7 04:56:59 46° E 04:56:59 46° E 04:59:30 10° ENE visible
20 Feb -3.5 06:29:58 11° W 06:33:05 57° N 06:36:24 10° ENE visible
21 Feb -0.6 04:11:40 14° E 04:11:40 14° E 04:12:17 10° ENE visible
21 Feb -3.6 05:44:38 34° WNW 05:45:51 62° N 05:49:10 10° ENE visible
22 Feb -3.1 04:59:16 53° NE 04:59:16 53° NE 05:01:58 10° ENE visible
22 Feb -3.5 06:32:20 10° WNW 06:35:39 60° N 06:38:58 10° E visible
23 Feb -0.8 04:13:52 17° ENE 04:13:52 17° ENE 04:14:45 10° ENE visible
23 Feb -3.4 05:46:50 27° WNW 05:48:23 57° N 05:51:42 10° E visible
24 Feb -3.2 05:01:24 54° NNE 05:01:24 54° NNE 05:04:25 10° ENE visible
24 Feb -3.7 06:34:45 10° WNW 06:38:07 83° NNE 06:41:27 10° ESE visible
25 Feb -1.0 04:15:58 20° ENE 04:15:58 20° ENE 04:17:08 10° ENE visible
25 Feb -3.6 05:48:56 23° WNW 05:50:51 69° NNE 05:54:11 10° E visible
26 Feb -3.5 05:03:30 60° N 05:03:33 60° N 05:06:52 10° E visible
27 Feb -1.3 04:18:05 23° ENE 04:18:05 23° ENE 04:19:32 10° E visible
27 Feb -3.8 05:51:03 21° WNW 05:53:09 76° SSW 05:56:30 10° ESE visible
